Theta_e
320 327 328 328 329 325 329 329 334 336 339 337 339 342 344 341 345 344 336 337 334 332 329 335 334 332 330 327 324 325 329 329 329 328 328 328 328 327 327 327 327 328 327 327 327 326 326 326 326
322 325 327 324 327 328 323 323 332 337 336 336 338 340 342 343 337 335 337 336 332 332 331 333 331 330 321 317 322 327 329 328 328 328 328 327 327 327 327 327 327 327 327 327 327 327 327 327 326
322 323 325 325 326 324 324 322 337 337 336 338 341 338 338 338 334 335 337 335 330 333 330 330 329 320 319 320 325 327 328 329 328 327 327 327 327 327 327 327 328 326 326 328 328 328 327 325 326
323 322 322 326 324 326 322 322 337 338 336 337 339 342 337 335 333 336 336 334 331 334 328 325 323 327 322 322 324 327 328 328 327 327 326 326 326 325 323 324 323 323 326 328 328 328 324 323 323
322 321 327 323 325 324 321 333 336 338 336 339 339 342 341 335 335 336 335 334 334 333 326 326 331 331 323 321 324 327 328 328 325 324 325 323 320 320 320 321 322 323 324 326 325 324 324 324 325
320 320 327 326 323 322 322 324 336 336 335 339 339 339 341 336 332 335 333 333 331 332 330 332 334 330 324 321 319 320 320 320 320 320 319 320 322 323 324 325 326 326 327 327 326 326 326 326 327
323 323 327 327 325 324 321 324 334 334 337 341 337 340 339 334 330 329 333 331 330 328 331 331 334 330 322 319 318 318 318 320 321 319 321 325 327 328 328 328 328 328 328 328 328 328 328 329 329
321 322 328 327 330 326 322 325 331 333 339 337 334 338 341 333 329 330 332 331 332 332 332 331 333 327 319 319 318 319 321 321 320 321 326 328 328 329 329 328 328 328 328 329 330 329 329 329 329
322 324 328 329 330 329 324 326 334 335 339 339 338 334 335 332 328 331 333 333 332 333 331 333 332 324 319 318 320 323 323 322 326 328 328 328 328 329 330 330 331 331 331 330 330 330 330 328 328
323 324 326 325 326 328 326 323 337 339 339 341 338 334 335 327 326 325 332 333 332 332 331 330 328 325 322 321 319 324 326 328 328 328 328 331 332 330 331 331 331 331 330 331 330 330 328 327 326
323 326 324 324 325 325 326 326 332 339 340 339 339 335 332 324 325 326 326 327 328 329 331 328 328 327 326 326 329 328 329 329 329 329 329 328 330 330 331 331 330 330 329 328 327 326 325 323 319
327 324 324 325 325 326 326 326 334 337 336 336 335 333 329 328 327 327 327 326 327 328 327 325 328 328 331 328 328 327 330 331 330 326 326 327 328 330 329 329 328 326 325 323 323 320 317 313 313
328 327 325 323 322 324 325 328 335 337 335 335 335 332 330 328 328 328 328 326 326 324 326 328 329 330 329 325 327 328 330 330 328 326 328 329 328 328 327 320 319 317 316 317 316 312 309 308 309
325 326 325 324 324 324 326 328 334 335 334 335 335 333 331 329 328 327 327 326 325 325 327 328 328 329 326 326 328 330 329 328 327 328 328 329 329 325 319 315 310 310 310 310 310 307 305 303 306
325 327 326 326 325 325 327 333 335 335 335 336 335 333 332 330 329 326 326 326 326 325 325 326 325 326 329 330 330 328 328 326 326 325 325 324 323 318 313 308 306 305 306 304 302 300 299 298 302
325 324 324 322 323 325 327 331 331 334 337 338 336 328 326 323 317 321 325 327 327 327 328 327 329 328 329 330 328 327 325 324 322 319 317 313 313 310 306 304 301 299 299 300 299 298 297 296 298
323 325 324 324 322 322 326 330 330 330 336 331 326 324 319 315 312 314 321 325 326 326 328 330 328 329 330 328 326 323 320 317 314 311 310 308 306 304 302 300 297 297 296 297 298 297 295 295 298
320 323 321 322 319 317 324 328 330 331 333 328 325 321 317 316 312 311 315 318 320 322 324 328 330 330 328 325 322 317 313 309 306 304 304 303 301 300 299 298 296 296 295 295 297 296 295 293 296
319 319 320 321 315 316 320 320 330 330 331 327 323 320 317 315 309 310 312 315 316 320 325 326 328 326 325 321 315 310 305 304 302 300 299 299 298 297 296 296 295 294 294 294 295 295 294 293 294
317 318 318 314 315 315 315 316 315 327 329 326 323 321 317 311 310 309 311 312 316 318 321 322 323 321 319 317 313 308 302 300 298 297 296 296 296 296 295 294 294 293 293 293 292 294 293 293 292
315 318 315 317 313 314 314 319 321 326 327 324 322 320 315 311 309 309 309 308 310 315 316 316 315 314 313 312 308 302 300 297 296 295 294 294 295 294 294 293 292 292 292 291 291 292 292 293 292
316 314 315 314 316 321 314 321 315 316 327 324 322 318 312 311 309 309 306 305 307 309 312 313 310 310 309 307 304 301 298 297 296 295 294 293 293 293 293 292 291 291 290 290 290 290 290 290 289
314 315 317 315 316 316 316 320 319 320 319 326 322 318 312 310 308 308 304 303 304 306 308 310 308 307 306 307 304 301 298 297 295 294 293 293 292 292 291 291 290 290 289 289 289 289 289 289 289
312 314 315 315 316 319 317 319 319 324 321 321 322 317 312 309 307 303 301 301 300 302 305 306 306 305 303 302 302 301 299 295 294 294 293 292 292 291 290 290 289 288 288 288 288 288 288 287 287
313 316 317 318 318 317 317 318 316 321 321 320 318 314 309 306 303 301 300 299 299 299 300 301 303 303 302 302 302 300 297 295 295 294 293 293 291 290 290 289 288 288 287 287 287 287 286 286 286
313 316 318 320 320 319 317 319 319 317 318 317 317 314 308 306 304 302 300 299 298 298 298 299 299 300 300 302 298 297 296 296 295 294 293 293 291 290 289 288 288 287 287 286 286 286 285 285 285
309 312 312 315 317 322 321 320 318 314 318 318 317 310 307 306 304 303 301 300 299 298 298 299 300 299 300 298 297 297 296 295 294 294 293 291 291 290 289 288 287 287 286 286 286 285 284 284 284
309 311 311 315 320 320 320 321 320 314 318 317 315 307 306 305 303 302 300 299 298 297 296 296 296 296 297 296 295 294 293 293 293 292 291 291 290 289 288 288 287 286 286 285 285 285 284 284 284
310 309 312 314 316 320 320 319 309 313 317 315 313 308 306 304 302 301 299 297 295 294 294 293 293 293 293 293 293 292 292 292 292 291 290 290 289 288 288 287 286 286 285 284 284 284 284 284 283
311 309 310 308 310 315 315 316 303 304 305 314 311 307 302 302 301 300 298 295 294 293 292 292 292 292 292 291 291 291 291 291 290 290 290 289 288 287 287 286 285 284 284 284 283 283 283 283 283
Wind_Speed
19 12 13 6 3 3 4 6 3 5 4 3 3 11 9 5 3 3 13 24 31 30 27 24 22 20 17 15 14 13 15 16 16 16 15 15 15 15 14 14 14 13 12 12 12 12 12 12 11
21 16 1 1 4 2 6 7 7 6 8 10 12 8 6 4 3 10 15 29 30 30 28 26 22 19 16 15 16 18 17 16 15 15 15 14 13 13 13 12 12 12 12 11 11 11 11 11 11
20 13 2 3 4 6 5 3 8 8 10 6 6 7 5 6 5 13 24 31 29 28 25 24 22 20 18 18 19 19 18 16 15 14 13 12 12 12 12 11 12 11 10 10 10 9 10 11 11
11 7 4 1 6 9 8 2 6 9 4 8 9 8 4 6 13 17 30 30 28 24 24 24 23 21 19 19 19 19 17 16 15 13 12 11 11 10 10 10 10 9 9 8 8 9 10 11 11
6 2 2 4 8 9 6 4 7 7 7 8 6 4 4 13 14 33 32 29 28 24 24 24 22 21 19 18 18 19 17 16 14 13 11 10 9 10 10 10 10 10 10 9 9 10 10 11 11
3 2 2 4 9 15 5 8 10 5 7 7 8 7 3 9 28 31 30 30 28 28 26 22 20 20 19 17 16 16 15 14 13 12 12 11 10 10 10 10 10 10 10 10 10 10 10 11 13
5 3 4 6 10 17 12 4 7 9 7 4 15 6 3 5 28 29 28 27 29 27 25 22 23 21 18 17 16 15 14 13 11 11 12 13 12 12 11 10 10 10 10 11 12 13 12 12 11
1 4 4 5 9 16 14 5 9 7 2 14 8 9 9 18 29 25 28 29 27 24 23 24 25 21 19 17 15 14 13 12 11 11 11 10 10 10 8 10 10 11 11 11 12 12 12 11 11
1 2 5 5 6 11 18 7 3 6 7 4 5 10 20 32 31 31 31 30 28 25 25 26 24 21 19 18 15 12 11 11 12 12 9 7 5 5 5 8 7 7 8 7 8 8 8 9 11
6 5 8 8 11 15 18 7 7 6 7 4 5 11 35 36 32 25 23 24 28 27 27 25 21 20 18 17 14 11 11 9 9 7 5 6 5 5 3 3 4 7 6 8 7 10 11 10 10
4 9 4 13 15 16 16 20 7 14 4 8 18 24 19 24 23 21 24 27 30 31 26 21 22 20 18 17 16 12 9 10 9 6 5 5 6 5 5 4 5 7 11 13 12 11 9 7 8
11 9 8 16 21 12 13 14 6 5 7 16 20 28 15 19 18 21 23 29 30 26 23 24 18 25 20 19 15 12 13 13 10 7 5 5 5 7 6 4 8 10 11 10 8 8 8 7 10
17 9 11 10 18 18 12 12 9 1 12 22 22 16 17 16 18 22 28 25 26 25 27 20 22 23 23 16 18 17 16 12 9 6 5 5 6 7 6 10 11 10 9 10 9 8 8 9 11
8 8 13 12 18 15 16 7 3 2 16 20 22 19 17 15 20 21 27 23 30 29 26 23 24 21 19 17 19 20 15 12 9 8 8 8 9 10 10 10 10 10 9 9 9 9 8 8 8
6 10 14 22 18 12 3 6 5 7 13 19 18 18 17 14 23 20 25 29 29 25 24 22 21 21 18 25 22 18 14 13 12 12 13 13 9 9 10 10 11 11 9 8 9 8 7 8 8
5 9 16 17 23 14 10 22 4 10 18 18 18 13 13 10 13 24 31 30 29 26 24 22 21 26 24 20 19 17 16 15 15 16 14 13 12 11 11 11 12 10 9 8 10 10 11 11 8
7 9 8 10 16 12 9 9 12 9 17 17 12 12 12 8 8 15 26 29 27 25 27 21 28 27 25 21 19 19 18 19 17 16 14 13 14 12 12 12 12 10 10 11 11 13 14 14 10
12 7 10 12 5 7 14 17 15 15 17 17 15 13 12 10 8 12 17 19 20 21 21 23 25 23 23 24 23 22 22 20 17 16 15 13 14 13 11 12 12 10 11 13 11 13 14 16 9
9 6 10 7 5 3 8 12 15 17 15 16 14 13 14 11 11 14 17 18 20 19 21 26 28 26 28 27 27 24 22 20 18 16 15 14 14 13 12 11 11 11 13 14 12 12 15 19 11
16 14 8 3 0 5 4 15 11 17 19 20 19 15 15 12 12 14 15 16 17 20 20 26 29 30 29 28 26 24 27 19 19 18 16 15 14 13 13 12 12 12 13 14 14 12 13 17 18
13 13 6 1 2 2 3 6 6 14 10 14 14 13 14 15 13 13 15 17 16 20 24 26 27 26 26 26 26 28 24 24 21 18 17 16 14 13 12 13 13 12 12 15 14 14 14 11 15
13 10 14 5 3 3 2 4 2 13 10 15 16 16 17 16 13 13 16 14 17 21 24 27 27 27 25 28 30 28 27 22 19 20 18 16 14 14 12 12 13 13 13 13 14 13 14 12 13
7 7 11 8 9 4 4 3 1 8 9 10 18 19 17 17 17 13 17 18 16 20 23 25 25 25 24 24 26 26 23 25 25 23 19 16 15 14 13 11 12 12 12 12 12 12 14 13 13
5 3 5 5 3 7 11 6 5 6 10 8 12 16 18 18 14 13 19 19 20 18 22 26 28 27 27 23 22 25 25 28 27 23 19 17 14 13 12 11 11 11 10 10 11 11 11 12 11
2 4 4 6 6 5 17 8 13 9 7 13 11 14 16 16 15 12 15 17 19 19 22 24 30 27 25 21 18 19 23 25 25 22 20 18 15 12 11 10 10 10 10 9 8 9 9 9 9
7 4 5 3 4 4 10 8 5 3 3 10 16 14 15 15 13 12 13 22 21 18 20 27 29 30 25 24 21 23 24 23 20 21 18 16 14 12 10 9 8 8 7 6 6 6 7 6 5
4 5 1 6 3 3 5 2 3 1 5 5 16 17 16 14 14 13 14 17 24 24 19 30 31 28 29 26 28 24 23 23 21 18 16 16 13 12 10 8 7 6 5 4 4 4 4 3 3
7 2 2 1 4 1 2 3 1 4 6 7 16 16 15 14 13 11 17 13 15 18 20 19 26 30 31 30 28 26 23 22 19 17 17 14 12 10 9 8 6 5 4 2 1 1 1 2 3
2 4 4 4 3 2 3 2 2 6 9 15 16 16 16 15 12 11 15 20 21 19 21 20 24 30 31 28 27 26 24 21 19 17 15 13 11 10 8 7 6 4 3 2 2 2 3 4 5
4 5 6 2 3 3 3 2 2 4 1 6 11 13 13 12 12 10 16 18 21 24 21 21 27 28 28 25 25 24 22 20 19 16 13 11 10 9 7 6 5 4 4 4 4 5 6 6 7
Wind_Direction
329 310 308 297 61 69 245 254 228 120 66 103 98 87 105 39 74 175 150 155 146 145 145 145 142 138 133 132 132 129 116 112 109 105 101 97 93 91 88 83 78 75 70 64 59 54 50 47 41
337 327 307 312 120 144 263 238 244 149 137 112 87 118 62 76 80 120 115 149 149 148 150 153 148 143 139 136 131 123 118 114 110 106 102 100 96 91 85 79 76 71 65 61 55 50 48 46 41
341 316 72 171 184 188 221 253 177 139 140 120 102 51 108 134 129 145 149 149 148 148 151 152 150 144 136 132 128 123 119 116 113 110 108 104 98 92 85 81 76 68 61 57 49 46 45 45 41
340 352 334 157 249 252 217 32 264 129 103 72 104 76 55 161 149 142 150 147 141 149 152 149 148 142 134 133 133 131 126 123 119 113 106 100 94 88 83 82 83 83 73 59 49 43 42 41 37
353 69 276 303 272 259 292 191 199 143 138 126 114 118 85 148 142 147 147 146 148 152 153 152 150 144 136 133 133 133 131 126 121 114 106 98 90 83 79 73 67 61 57 52 45 41 37 34 31
10 104 295 251 264 275 274 247 153 154 137 148 93 99 121 141 146 151 149 149 153 154 155 155 155 146 137 136 136 134 131 127 122 115 108 97 86 77 71 63 57 51 46 43 41 38 37 40 40
149 121 238 272 273 282 267 228 166 159 153 140 135 99 130 138 156 154 151 153 152 150 150 153 156 146 141 139 136 134 130 125 120 111 104 95 84 70 62 58 53 50 46 42 39 37 40 39 33
227 136 256 247 271 279 279 238 181 160 32 136 138 149 163 171 160 151 154 146 148 153 153 154 154 147 145 142 138 134 128 118 105 98 96 85 73 68 61 58 52 47 42 44 47 45 42 33 30
194 239 201 244 264 269 279 264 78 57 94 30 330 158 149 161 165 148 149 150 152 149 151 155 155 152 151 146 143 137 126 116 108 93 90 90 90 88 76 53 54 55 47 47 44 41 40 25 28
178 204 220 193 247 263 289 261 160 111 139 71 55 103 143 156 165 152 154 146 150 154 159 160 160 161 161 151 142 135 125 121 110 111 109 106 104 92 80 77 61 49 36 47 45 49 36 42 43
242 233 242 264 256 259 284 309 224 143 170 168 149 146 143 150 153 153 147 145 142 142 157 157 167 167 159 154 142 131 137 126 136 146 120 113 112 116 108 95 55 63 69 65 57 49 47 45 49
257 264 261 262 269 278 279 296 226 161 185 147 162 151 143 146 149 142 140 143 148 154 159 161 172 173 161 145 145 145 153 157 155 125 146 134 122 119 91 60 75 84 81 81 77 69 62 60 62
252 271 281 304 308 295 279 286 246 19 127 136 146 142 147 146 149 146 147 148 156 158 160 165 169 156 155 157 159 166 159 162 145 154 150 143 120 102 96 91 87 86 81 78 81 70 71 78 71
300 284 274 290 290 296 272 245 264 296 130 138 151 155 152 153 161 156 166 160 157 164 170 166 158 167 160 162 169 162 159 157 151 141 122 107 109 113 109 97 83 82 73 75 70 64 60 62 79
241 239 282 272 272 288 269 254 213 157 146 145 157 157 161 163 174 170 169 159 166 175 181 173 159 168 172 162 157 157 160 146 132 120 117 117 120 117 110 97 86 82 86 82 73 63 57 60 89
226 230 243 263 266 272 223 250 185 174 155 154 159 145 135 126 114 133 144 154 162 166 176 176 188 179 169 162 161 156 146 137 128 125 126 122 120 116 106 97 89 82 85 73 58 53 47 41 72
240 223 225 257 251 262 260 237 182 213 162 142 155 152 134 127 102 121 143 151 158 156 160 157 161 165 165 163 155 146 139 133 130 127 124 121 119 116 110 100 90 83 75 72 63 49 40 38 62
235 245 224 226 20 340 281 272 179 186 171 164 162 158 143 159 149 131 138 142 153 157 157 161 163 166 163 157 149 142 139 133 132 124 123 127 119 116 109 100 90 80 76 73 74 60 50 45 60
284 223 272 207 85 80 304 310 203 191 175 164 160 161 152 167 146 140 138 142 152 154 156 166 170 168 165 157 148 144 136 134 127 121 120 120 116 110 106 96 86 75 71 67 71 66 52 47 59
238 255 243 275 171 119 324 300 314 211 187 170 163 170 161 157 154 149 146 151 153 156 161 167 170 167 166 164 158 152 143 134 126 123 120 114 112 108 101 95 86 78 76 72 65 65 65 56 47
241 242 214 309 229 88 306 254 297 236 189 167 165 162 158 164 158 150 144 151 159 155 164 165 166 166 166 164 157 146 139 133 128 125 117 109 109 103 99 95 89 84 77 73 67 62 64 74 61
264 219 221 199 178 236 168 278 258 300 197 175 166 169 163 162 158 152 140 141 161 157 164 167 164 164 165 165 159 152 147 138 140 132 122 115 109 103 94 91 92 87 81 80 76 71 70 69 65
254 188 217 191 186 175 156 254 165 184 282 205 179 174 167 160 158 156 142 143 155 160 162 165 163 161 159 161 157 155 153 146 140 132 127 120 114 107 102 96 92 90 85 84 82 80 76 68 69
270 232 275 198 203 233 188 170 200 191 217 216 189 171 163 151 150 138 127 138 140 154 155 155 154 147 150 155 162 163 152 151 143 138 133 126 117 111 108 104 99 96 93 86 83 79 75 74 71
147 224 227 215 188 227 165 179 243 210 156 192 198 168 153 143 144 146 141 142 135 150 145 142 145 145 150 152 158 160 158 160 149 144 143 135 126 120 113 111 108 102 98 92 87 82 77 69 67
201 221 256 220 180 184 152 208 266 170 153 145 179 178 157 152 150 155 165 150 137 146 148 144 144 143 146 143 145 171 161 155 147 149 146 137 136 129 125 119 116 109 104 100 94 84 79 71 57
261 213 123 310 257 172 169 275 280 134 209 224 178 158 167 161 158 156 162 139 151 159 160 155 153 145 145 154 155 163 160 149 149 147 146 141 138 135 134 134 127 122 115 113 101 90 74 57 28
226 195 54 78 291 86 55 337 256 206 223 126 160 162 164 153 150 152 126 143 138 148 158 147 146 150 152 162 164 162 158 152 148 152 147 143 144 145 148 149 139 138 140 137 109 80 44 348 345
244 249 255 160 250 330 121 253 200 197 197 175 170 166 162 153 150 148 146 145 134 145 146 148 152 153 160 166 162 158 156 150 152 155 149 150 151 153 158 154 164 173 178 199 219 254 273 303 312
256 255 210 151 271 260 248 214 295 265 161 156 154 142 134 137 142 151 134 143 151 142 147 155 158 164 162 164 162 159 152 153 154 152 152 158 157 163 166 172 184 198 221 236 247 257 265 290 302